Latest Coastal Weather Observations for Low Head

IDV60701

Issued at 7:32 am EDT Tuesday 6 December 2016 (issued every 10 minutes, with the page automatically refreshed every 10 minutes)

About coastal observations | Map of coastal stations | Coastal observations for VIC | Marine services | Other Formats
Station Details ID: 091293 Name: LOW HEAD Lat: -41.05 Lon: 146.79 Height: 3.0 m
Data from the previous 72 hours. | See also: Recent months at Low Head
Date/Time
EDT
Temp
°C
Wind Pressure Rain since
9am
mm
Weather Cloud Vis
km
Sea
Height
m
Swell
Dir  Spd
kts
Gust
kts
hPa Trend Height
m
Period
s
Dir
06/07:30am 12.2 SSW 6 10 1010.2 - 0.0 - - - - - - -
06/07:00am 12.5 NW 4 6 1009.9 - 0.0 - - - - - - -
06/06:30am 12.2 NNW 6 8 1010.0 - 0.0 - - - - - - -
06/06:00am 12.6 NNW 9 11 1010.0 - 0.0 - - - - - - -
06/05:30am 12.5 N 9 10 1009.6 - 0.0 - - - - - - -
06/05:00am 12.4 N 9 11 1009.5 - 0.0 - - - - - - -
06/04:30am 13.0 N 11 13 1009.5 - 0.0 - - - - - - -
06/04:00am 13.0 N 12 13 1009.9 - 0.0 - - - - - - -
06/03:30am 13.3 N 14 17 1010.3 - 0.0 - - - - - - -
06/03:00am 13.3 N 12 13 1010.4 - 0.0 - - - - - - -
06/02:30am 13.5 N 10 12 1010.6 - 0.0 - - - - - - -
06/02:00am 13.5 N 9 11 1010.8 - 0.0 - - - - - - -
06/01:30am 13.5 N 8 9 1011.0 - 0.0 - - - - - - -
06/01:00am 13.4 N 6 8 1010.9 - 0.0 - - - - - - -
06/12:30am 13.3 NW 6 6 1011.1 - 0.0 - - - - - - -
06/12:00am 13.4 WNW 8 9 1011.1 - 0.0 - - - - - - -
 
Date/Time
EDT
Temp
°C
Wind Pressure Rain since
9am
mm
Weather Cloud Vis
km
Sea
Height
m
Swell
Dir  Spd
kts
Gust
kts
hPa Trend Height
m
Period
s
Dir
05/11:30pm 14.0 WNW 12 14 1011.4 - 0.0 - - - - - - -
05/11:00pm 14.2 WNW 15 17 1011.4 - 0.0 - - - - - - -
05/10:30pm 14.5 WNW 14 16 1011.3 - 0.0 - - - - - - -
05/10:00pm 14.8 WNW 14 16 1010.9 - 0.0 - - - - - - -
05/09:30pm 15.4 W 14 17 1010.1 - 0.0 - - - - - - -
05/09:00pm 15.6 W 16 19 1009.9 - 0.0 - - - - - - -
05/08:30pm 15.8 WNW 16 18 1009.7 - 0.0 - - - - - - -
05/08:00pm 16.3 WNW 15 17 1009.7 - 0.0 - - - - - - -
05/07:30pm 16.6 WNW 16 18 1009.1 - 0.0 - - - - - - -
05/07:00pm 17.1 WNW 15 16 1008.4 - 0.0 - - - - - - -
05/06:30pm 16.9 NW 14 17 1008.0 - 0.0 - - - - - - -
05/06:00pm 17.3 NW 17 19 1008.2 - 0.0 - - - - - - -
05/05:30pm 17.4 WNW 21 25 1008.1 - 0.0 - - - - - - -
05/05:00pm 17.5 NW 20 24 1008.1 - 0.0 - - - - - - -
05/04:30pm 17.8 NW 19 23 1007.7 - 0.0 - - - - - - -
05/04:00pm 17.5 NW 20 23 1007.5 - 0.0 - - - - - - -
05/03:30pm 18.0 WNW 21 25 1007.5 - 0.0 - - - - - - -
05/03:00pm 18.0 WNW 24 29 1007.3 - 0.0 - - - - - - -
05/02:30pm 17.8 WNW 22 27 1007.3 - 0.0 - - - - - - -
05/02:00pm 17.9 WNW 22 26 1007.1 - 0.0 - - - - - - -
05/01:30pm 17.8 WNW 22 25 1007.2 - 0.0 - - - - - - -
05/01:00pm 17.8 WNW 21 26 1006.8 - 0.0 - - - - - - -
05/12:30pm 18.1 WNW 20 24 1006.8 - 0.0 - - - - - - -
05/12:00pm 17.7 WNW 22 27 1006.5 - 0.0 - - - - - - -
05/11:30am 16.9 WNW 23 28 1006.5 - 0.0 - - - - - - -
05/11:00am 16.7 WNW 23 28 1006.2 - 0.0 - - - - - - -
05/10:30am 16.5 WNW 22 27 1006.0 - 0.0 - - - - - - -
05/10:00am 16.0 WNW 22 27 1006.1 - 0.0 - - - - - - -
05/09:30am 15.7 WNW 20 25 1006.0 - 0.0 - - - - - - -
05/09:00am 15.4 W 22 26 1005.4 - 2.2 - - - - - - -
05/08:30am 15.1 WNW 24 28 1005.0 - 2.2 - - - - - - -
05/08:00am 14.9 W 26 31 1004.3 - 2.2 - - - - - - -
05/07:30am 15.2 WNW 24 29 1003.6 - 2.2 - - - - - - -
05/07:00am 15.3 WNW 25 32 1002.8 - 2.2 - - - - - - -
05/06:30am 15.4 WNW 23 28 1001.9 - 2.2 - - - - - - -
05/06:00am 15.6 WNW 22 25 1001.3 - 2.2 - - - - - - -
05/05:30am 16.0 NW 21 25 1000.6 - 2.2 - - - - - - -
05/05:00am 16.1 NW 21 24 1000.0 - 2.2 - - - - - - -
05/04:30am 16.6 WNW 23 27 999.6 - 2.2 - - - - - - -
05/04:00am 17.0 NW 23 28 999.6 - 2.2 - - - - - - -
05/03:39am 17.6 NW 24 34 999.6 - 1.6 - - - - - - -
05/03:30am 17.8 NW 22 27 999.4 - 0.6 - - - - - - -
05/03:21am 17.9 NW 22 28 999.5 - 0.6 - - - - - - -
05/03:05am 18.4 N 15 35 999.4 - 0.6 - - - - - - -
05/03:00am 17.0 NNE 13 24 999.2 - 0.6 - - - - - - -
05/02:30am 16.2 NE 16 17 999.0 - 0.6 - - - - - - -
05/02:00am 16.1 NE 15 16 999.5 - 0.6 - - - - - - -
05/01:30am 16.4 ENE 14 16 999.8 - 0.6 - - - - - - -
05/01:00am 16.3 ENE 14 16 1000.8 - 0.6 - - - - - - -
05/12:30am 16.3 ENE 13 15 1002.0 - 0.6 - - - - - - -
05/12:00am 16.4 ENE 13 15 1002.2 - 0.6 Recent precip. - - - - - -
 
Date/Time
EDT
Temp
°C
Wind Pressure Rain since
9am
mm
Weather Cloud Vis
km
Sea
Height
m
Swell
Dir  Spd
kts
Gust
kts
hPa Trend Height
m
Period
s
Dir
04/11:30pm 16.5 ENE 12 15 1003.2 - 0.6 - - - - - - -
04/11:00pm 16.6 NE 14 16 1004.2 - 0.2 - - - - - - -
04/10:30pm 16.8 NE 15 17 1004.4 - 0.2 - - - - - - -
04/10:00pm 17.4 NE 12 17 1004.8 - 0.0 - - - - - - -
04/09:30pm 17.0 ENE 10 12 1004.8 - 0.0 - - - - - - -
04/09:00pm 17.0 ENE 11 13 1004.8 - 0.0 - - - - - - -
04/08:30pm 17.2 ENE 14 15 1004.8 - 0.0 - - - - - - -
04/08:00pm 17.5 ENE 13 15 1005.0 - 0.0 - - - - - - -
04/07:30pm 17.7 ENE 16 18 1005.3 - 0.0 - - - - - - -
04/07:00pm 17.2 ENE 17 18 1005.8 - 0.0 - - - - - - -
04/06:30pm 17.2 ENE 17 19 1006.1 - 0.0 - - - - - - -
04/06:00pm 17.1 NE 13 15 1006.9 - 0.0 - - - - - - -
04/05:30pm 17.3 NE 15 17 1006.9 - 0.0 - - - - - - -
04/05:00pm 17.4 NE 13 16 1007.4 - 0.0 - - - - - - -
04/04:30pm 17.5 NE 14 15 1007.8 - 0.0 - - - - - - -
04/04:00pm 17.7 NE 14 16 1008.0 - 0.0 - - - - - - -
04/03:30pm 18.0 NE 17 19 1008.4 - 0.0 - - - - - - -
04/03:00pm 17.7 NE 15 17 1009.0 - 0.0 - - - - - - -
04/02:30pm 18.1 NE 15 18 1009.6 - 0.0 - - - - - - -
04/02:00pm 18.0 NE 14 16 1010.1 - 0.0 - - - - - - -
04/01:30pm 17.7 NE 13 15 1010.7 - 0.0 - - - - - - -
04/01:00pm 17.0 NE 12 13 1011.5 - 0.0 - - - - - - -
04/12:30pm 17.1 NE 11 12 1012.2 - 0.0 - - - - - - -
04/12:00pm 17.1 NE 11 13 1012.7 - 0.0 - - - - - - -
04/11:30am 17.0 NE 10 11 1012.9 - 0.0 - - - - - - -
04/11:00am 16.7 NE 10 11 1013.0 - 0.0 - - - - - - -
04/10:30am 16.1 NE 10 11 1013.6 - 0.0 - - - - - - -
04/10:00am 15.7 NE 10 12 1013.5 - 0.0 - - - - - - -
04/09:30am 15.6 NE 9 11 1013.9 - 0.0 - - - - - - -
04/09:00am 14.7 ENE 8 9 1014.0 - 0.0 - - - - - - -
04/08:30am 14.4 ENE 10 11 1014.4 - 0.0 - - - - - - -
04/08:00am 14.0 ENE 8 10 1014.1 - 0.0 - - - - - - -
04/07:30am 13.0 SE 5 7 1014.2 - 0.0 - - - - - - -
04/07:00am 12.0 SE 6 9 1014.4 - 0.0 - - - - - - -
04/06:30am 10.9 SE 7 9 1014.5 - 0.0 - - - - - - -
04/06:00am 10.3 SE 5 7 1014.4 - 0.0 - - - - - - -
04/05:30am 10.5 ESE 7 9 1014.0 - 0.0 - - - - - - -
04/05:00am 10.3 ESE 7 9 1013.8 - 0.0 - - - - - - -
04/04:30am 10.2 ESE 8 10 1013.7 - 0.0 - - - - - - -
04/04:00am 10.2 ESE 7 10 1013.8 - 0.0 - - - - - - -
04/03:30am 10.4 E 8 11 1014.0 - 0.0 - - - - - - -
04/03:00am 10.2 ESE 6 9 1013.9 - 0.0 - - - - - - -
04/02:30am 10.4 SE 6 7 1014.1 - 0.0 - - - - - - -
04/02:00am 10.6 SSE 7 8 1014.2 - 0.0 - - - - - - -
04/01:30am 11.0 SSE 7 8 1014.6 - 0.0 - - - - - - -
04/01:00am 12.2 S 7 8 1014.6 - 0.0 - - - - - - -
04/12:30am 14.2 W 9 10 1014.6 - 0.0 - - - - - - -
04/12:00am 14.4 WNW 13 16 1014.9 - 0.0 - - - - - - -
 
Date/Time
EDT
Temp
°C
Wind Pressure Rain since
9am
mm
Weather Cloud Vis
km
Sea
Height
m
Swell
Dir  Spd
kts
Gust
kts
hPa Trend Height
m
Period
s
Dir
03/11:30pm 14.6 WNW 15 16 1015.0 - 0.0 - - - - - - -
03/11:00pm 14.7 NW 15 18 1014.9 - 0.0 - - - - - - -
03/10:30pm 14.9 NW 16 20 1014.9 - 0.0 - - - - - - -
03/10:00pm 14.7 NW 17 19 1015.0 - 0.0 - - - - - - -
03/09:30pm 14.7 NW 16 20 1015.0 - 0.0 - - - - - - -
03/09:00pm 14.5 NW 15 19 1014.9 - 0.0 - - - - - - -
03/08:30pm 14.6 NW 18 21 1014.7 - 0.0 - - - - - - -
03/08:00pm 14.6 NW 17 21 1014.7 - 0.0 - - - - - - -
03/07:30pm 15.0 NW 16 20 1014.7 - 0.0 - - - - - - -
03/07:00pm 15.5 NW 17 21 1014.7 - 0.0 - - - - - - -
03/06:30pm 15.4 NW 17 20 1014.4 - 0.0 - - - - - - -
03/06:00pm 15.6 NW 17 20 1014.2 - 0.0 - - - - - - -
03/05:30pm 15.8 NW 18 23 1014.0 - 0.0 - - - - - - -
03/05:00pm 15.8 NW 19 23 1014.0 - 0.0 - - - - - - -
03/04:30pm 15.9 NW 20 25 1014.3 - 0.0 - - - - - - -
03/04:00pm 16.3 NW 19 22 1014.4 - 0.0 - - - - - - -
03/03:30pm 16.3 NW 19 22 1014.5 - 0.0 - - - - - - -
03/03:00pm 16.6 NW 19 22 1014.7 - 0.0 - - - - - - -
03/02:30pm 16.7 NW 18 21 1014.9 - 0.0 - - - - - - -
03/02:00pm 16.8 NW 19 21 1015.0 - 0.0 - - - - - - -
03/01:30pm 16.7 NW 18 21 1015.2 - 0.0 - - - - - - -
03/01:00pm 16.9 NW 17 21 1015.3 - 0.0 - - - - - - -
03/12:30pm 16.7 NW 15 17 1015.3 - 0.0 - - - - - - -
03/12:00pm 16.5 NW 15 19 1015.4 - 0.0 - - - - - - -
03/11:30am 16.5 NW 15 16 1015.4 - 0.0 - - - - - - -
03/11:00am 16.1 NW 13 15 1015.4 - 0.0 - - - - - - -
03/10:30am 15.9 WNW 12 14 1015.4 - 0.0 - - - - - - -
03/10:00am 15.1 WNW 11 14 1015.3 - 0.0 - - - - - - -
03/09:30am 14.7 WNW 12 15 1015.3 - 0.0 - - - - - - -
03/09:00am 14.2 WNW 11 13 1015.1 - 0.0 - - - - - - -
03/08:30am 13.4 W 7 10 1014.9 - 0.0 - - - - - - -
03/08:00am 12.7 WSW 7 9 1014.6 - 0.0 - - - - - - -

Other Formats:

Comma delimited format used in spreadsheet applications
http://www.bom.gov.au/fwo/IDV60701/IDV60701.95964.axf

JavaScript Object Notation format (JSON) in row-major order
http://www.bom.gov.au/fwo/IDV60701/IDV60701.95964.json